STARLINK-32845, 62815

Orbit data source: Space-Track

STARLINK-32845, 62815 is a payload satellite owned by SpaceX/Seattle (US) in LEO that was launched on Fri, 24 Jan 2025 UTC via an FALCON 9 launch vehicle from the Air Force Western Test Range (AFWTR). Payloads include a variety of satellites, spacecraft, and rockets equipped with specific instruments for various scientific and technological missions. These include communications satellites like Starlink; space stations such as the ISS; scientific satellites like the Hubble; Earth observation satellites from companies like Planet Labs, Umbra, and HawkEye 360; GPS; miniature CubeSats for education and research; and military/defense satellites.

Loading next visibility...
STARLINK-32845 details
Identifier
62815, 2025-018K
Orbit
LEO
Last TLE update9 hours ago
Origin
Flag of USSpaceX/Seattle (US)
ManufacturerSpaceX/Seattle
MissionOperational spacecraft
Bus & MotorSTARLINK V2M, Unknown motor
Mass730 kg wet, ~700 kg dry
Launch date (UTC)
2025-01-24 (3 weeks ago)
Launch vehicle
FALCON 9
Launch site
Air Force Western Test Range (AFWTR)
Object type
Payload
Rocket body
Debris
Shape & HBRUnknown
Radar Cross SectionLarge (>1 m²)

Expand to show TLE details & history

TLE from 9 hours ago
0 STARLINK-32845
1 62815U 25018K   25047.16668981 -.01600094  00000-0 -25396-1 0  9999
2 62815  53.1589 312.5152 0000687  76.5097 278.5275 15.55656582  4524
Epoch: 2025-02-16T04:00Z
Definitive object data (Epoch: 2025-02-16T04:00:01.999Z)
Latitude-4.08194°
Longitude103.05546°
Altitude401.705 km
Speed7.671 km/s
True Right ascension20h 37m 52s
True Declination-4° 03' 23"
Sunlit
Object was in daylight at TLE epoch
Visualization TLE readout
Latitude-50.77925°
Longitude-9.77003°
Altitude422.11 km
Speed7.657 km/s
Apparent Right ascension07h 38m 27s
Apparent Declination-72° 07' 21"
Sunlit
Object is in daylight
Visualization observer readout
Local Sidereal Time15:36:11
Azimuth202.893° SW
Elevation-46.585°
Doppler factor1
Orbital elements
Apogee altitude400.97 km
Perigee altitude400.038 km
Semi-major axis6,778.641 km
Eccentricity0.0000687
Inclination53.1589°
RAAN312.5152°
Arg. of periapsis76.5097°
True anomaly278.51971°
Mean anomaly278.5275°
Eccentric anomaly278.52361°
Mean motion3.88892 °/min
BSTAR-0.025396
Orbital period92.57 mins
Loading maneuver chart data...
Loading historical data...
Loading historical data...
Loading historical data...
Loading historical data...
Loading historical data...
Loading historical data...
Loading historical data...

STARLINK-32845 Visibility forecast

Observer location: undefined°, undefined

Span
Click to sort rows by Start time (UTC) header in descending order
Start Az.
Max El. time (UTC)
Max El. Az.
Max El.
End time (UTC)
End Az.
5 mins2025-02-16 19:36:36.442Z191.124° SSW2025-02-16 19:39:36.442Z117.386° SE24.572°2025-02-16 19:41:36.442Z75.198° E
4 mins2025-02-17 02:06:36.442Z351.632° N2025-02-17 02:07:36.442Z18.502° NNE22.993°2025-02-17 02:10:36.442Z87.439° E
4 mins2025-02-17 03:42:36.442Z281.818° WNW2025-02-17 03:44:36.442Z219.276° SW29.344°2025-02-17 03:46:36.442Z166.984° S
|